Simultaneous Nadir Overpasses (SNOs) Predictions

Prediction of SNOs between AQUA and NOAA-19 Satellite Orbit:

Table of predicted SNOs for the next 14.0 days since TLE Epoch: 12/1/2017
Index Date (AQUA) Time (AQUA) Lat,Lon (AQUA) SZA (AQUA ) Date (NOAA-19) Time (NOAA-19) Lat,Lon (NOAA-19) SZA (NOAA-19 ) Distance(km) Time Diff (sec)
1 12/02/2017 08:14:45 80.91, 16.23 104.65 12/02/2017 08:14:30 80.90, 16.29 104.64 1.46 15
2 12/02/2017 09:04:12 -80.92,-176.24 75.34 12/02/2017 09:05:25 -80.91,-176.18 75.38 1.81 73
3 12/04/2017 13:48:29 -80.90, 112.90 75.05 12/04/2017 13:48:08 -80.90, 112.83 75.03 1.20 21
4 12/06/2017 19:22:13 80.91,-150.58 105.26 12/06/2017 19:21:55 80.90,-150.55 105.26 0.83 18
5 12/06/2017 20:11:40 -80.92, 16.96 74.73 12/06/2017 20:12:51 -80.90, 16.84 74.75 2.54 71
6 12/09/2017 00:55:57 -80.91, -53.97 74.50 12/09/2017 00:55:33 -80.90, -53.81 74.50 2.73 24
7 12/09/2017 01:45:23 80.90, 113.80 105.49 12/09/2017 01:46:37 80.91, 113.67 105.49 2.66 74
8 12/11/2017 06:29:41 80.91, 42.50 105.75 12/11/2017 06:29:20 80.90, 42.46 105.75 1.72 21
9 12/11/2017 07:19:08 -80.92,-149.97 74.24 12/11/2017 07:20:16 -80.90,-149.85 74.29 2.91 68
10 12/13/2017 12:03:24 -80.89, 139.38 74.12 12/13/2017 12:02:58 -80.90, 139.46 74.11 2.06 26
11 12/13/2017 12:52:51 80.91, -53.19 105.92 12/13/2017 12:54:01 80.91, -53.03 105.88 2.79 70
12 12/15/2017 17:37:08 80.90,-124.20 106.06 12/15/2017 17:36:44 80.90,-124.31 106.07 1.87 24




NCC Satellite Simultaneous Nadir Overpasses (SNOs) Prediction Service
